Skip Page Navigation
NASA JPL Caltech
NASA Logo - Jet Propulsion Laboratory + View the NASA Portal
+ Near-Earth Object (NEO) Program
Search JPL
JPL Home Earth Solar System Stars & Galaxies Technology
JPL Solar System Dynamics
BODIES ORBITS EPHEMERIDES TOOLS PHYSICAL DATA DISCOVERY FAQ SITE MAP
JPL Small-Body Database Browser
Search: [ help ]  
175586 Tsou (2006 TU106)
Classification: Main-belt Asteroid          SPK-ID: 2175586
Ephemeris | Orbit Diagram | Orbital Elements | Physical Parameters | Discovery Circumstances ]

[ show orbit diagram ]
Orbital Elements at Epoch 2456400.5 (2013-Apr-18.0) TDB
Reference: MPO251420 (heliocentric ecliptic J2000)
 Element Value Uncertainty (1-sigma)   Units 
e 0.0216969 n/a  
a 3.1591809 n/a AU
q 3.0906365 n/a AU
i 3.89168 n/a deg
node 90.89405 n/a deg
peri 312.88863 n/a deg
M 56.96747 n/a deg
tp 2456075.9477789
(2012-May-28.44777890)
n/a JED
period 2050.9739962
5.62
n/a
n/a
d
yr
n 0.17552636 n/a deg/d
Q 3.2277253 n/a AU
  Orbit Determination Parameters
   # obs. used (total)      112  
   first obs. used      2003-??-??  
   last obs. used      2013-01-19  
   # oppositions      8  
   planetary ephem.      DE403  
   condition code      0  
   fit RMS      0.33  
   data source      MPC:mpu  
   producer      MPCLINUX  

Additional Information
 T_jup = 3.201 

Ephemeris | Orbit Diagram | Orbital Elements | Physical Parameters | Discovery Circumstances ]

Physical Parameter Table
Parameter Symbol Value Units Sigma Reference Notes
absolute magnitude H 15.6 mag n/a MPO251420  

175586 Tsou           Discovered 2006 Oct. 15 by Q.-z. Ye and C.-S. Lin at Lulin.
Tsou tribe is a native tribe in Taiwan. Its population of about 6400 is distributed mostly in Alishan Village, Chiayi County, and parts of Sinyi Village, Nantou County, as well as in Tauyuan and Sanmin Villages of Kaohsiung County. The Tsou people are known for their handsome features and bravery.
NOTE: some special characters may not display properly (any characters within {} are an attempt to place the proper accent above a character)
Reference: 20081212/MPCPages.arcLast Updated: 2008-12-12

Alternate Designations
 2006 TU106 = 2007 YH44 
Ephemeris | Orbit Diagram | Orbital Elements | Physical Parameters | Discovery Circumstances ]
ABOUT SSD CREDITS/AWARDS PRIVACY/COPYRIGHT GLOSSARY LINKS
FirstGov 2013-Jun-20 03:46 UT
(server date/time)  
NASA Home Page
Site Manager:   Donald K. Yeomans
Webmaster  Alan B. Chamberlin